Location: The Saddle
(36.8333°N, 80.3417°W)
Time: 17:51:32
(UTC-05:00)

XW-2D - Visible Passes

Search period start: 20 February 2024 00:00
Search period end: 01 March 2024 00:00
Orbit: 441 x 452 km, 97.5° (Epoch: 20 February)

Date Brightness Start Highest point End Pass type
(mag) Time Alt. Az. Time Alt. Az. Time Alt. Az.
20 Feb ? 19:14:42 10° SW 19:16:59 17° W 19:19:17 10° NW visible
21 Feb ? 06:37:13 10° NE 06:40:10 27° E 06:43:06 10° SSE visible
21 Feb ? 18:37:34 10° S 18:40:51 58° W 18:44:10 10° NNW visible
23 Feb ? 18:58:22 10° SSW 19:01:17 28° W 19:04:15 10° NW visible
24 Feb ? 06:22:08 10° NE 06:24:23 17° E 06:26:38 10° SE visible
25 Feb ? 19:19:29 10° SW 19:21:33 15° W 19:23:37 10° NW visible
26 Feb ? 18:41:51 10° S 18:45:05 51° W 18:48:23 10° NNW visible
28 Feb ? 19:02:05 10° SSW 19:04:56 26° W 19:07:48 10° NW visible
29 Feb ? 06:25:30 10° NE 06:27:54 18° E 06:30:17 10° SE visible
